RH
87 85 84 82 78 76 85 99 98 100 94 89 94 73 63 56 56 64 55 46 38 30 25 22 16 14 16 16 12 9 9 11 17 23 24 22 22 22 21 20 22 24 24 25
87 79 72 69 67 63 60 73 82 76 72 72 76 70 77 58 46 40 36 31 27 23 18 17 24 21 14 10 9 11 16 18 23 26 26 26 24 22 29 31 28 25 22 18
52 45 43 47 48 54 55 53 50 52 51 43 41 45 52 55 43 34 29 25 23 25 35 37 22 18 13 16 18 16 15 14 15 16 18 23 35 41 42 40 30 25 20 21
66 57 52 53 51 50 45 46 45 47 54 54 44 47 43 36 33 32 44 44 48 51 36 27 26 20 20 16 17 17 17 16 15 16 27 41 48 54 52 36 31 24 24 25
31 35 50 42 37 38 45 36 39 41 44 42 38 38 38 32 39 42 67 77 57 40 36 37 28 26 18 20 22 17 16 18 21 26 40 59 54 44 38 32 30 28 28 26
35 36 38 44 46 44 43 47 40 38 36 35 37 37 37 37 50 68 82 74 47 40 39 41 35 28 18 22 21 21 22 29 30 28 38 56 56 46 41 39 36 32 28 26
35 33 35 42 44 48 42 40 38 38 38 40 50 54 54 58 72 90 84 61 44 40 40 38 35 24 24 28 25 23 31 37 32 32 45 60 58 50 50 46 43 35 30 27
58 51 49 43 45 46 45 46 53 41 41 60 64 74 81 84 98 93 74 53 45 42 39 38 34 32 30 30 29 30 36 36 39 43 52 69 65 59 57 52 44 38 34 27
56 65 67 60 52 50 45 42 39 36 36 48 70 89 95 97 98 96 86 60 50 50 40 35 33 36 33 33 34 40 39 39 44 51 58 72 75 70 64 55 48 42 38 33
43 44 50 66 70 62 56 52 47 44 40 34 54 83 93 99 100 99 84 73 54 51 45 37 32 36 41 37 34 42 45 44 47 57 60 67 73 74 69 62 59 53 47 42
23 29 37 40 44 58 66 62 58 53 51 45 35 47 81 96 100 100 98 88 74 52 47 43 36 33 40 42 39 40 46 48 52 57 64 67 69 75 77 74 69 65 58 53
51 26 20 21 30 35 37 42 52 55 53 51 46 40 41 77 92 97 98 99 94 83 56 47 48 40 40 44 44 44 48 54 56 58 61 66 69 76 84 87 83 76 67 60
91 71 44 26 20 23 31 34 32 36 43 49 47 46 46 40 47 81 92 91 87 99 85 66 51 53 53 51 50 50 49 51 58 60 60 65 69 76 79 86 95 91 82 75
85 83 85 58 33 23 23 30 34 30 31 39 47 47 43 44 45 50 79 86 89 97 100 87 63 54 52 54 58 58 59 58 58 64 69 73 80 80 78 90 100 100 96 91
81 100 98 89 58 34 24 31 35 35 36 37 40 44 46 46 45 45 67 83 88 97 100 98 83 68 62 64 69 67 64 66 68 73 80 90 88 86 81 94 100 100 100 100
77 97 100 100 73 38 28 28 32 33 40 46 48 47 47 48 46 40 41 75 94 94 92 96 96 85 78 77 74 74 76 75 76 82 99 100 97 92 93 96 100 100 98 100
100 100 100 100 87 39 34 33 32 29 28 28 32 46 54 51 46 40 36 46 56 84 93 96 100 99 93 89 91 82 77 81 87 97 100 100 100 100 98 97 96 95 94 100
90 95 100 100 93 46 41 37 36 32 30 26 22 23 24 33 50 54 48 42 44 44 44 47 53 62 71 74 69 68 82 95 98 100 100 100 100 100 98 96 93 99 100 100
100 100 100 100 93 64 44 39 34 28 25 24 26 28 28 23 24 36 50 54 49 46 44 43 43 41 42 44 51 62 83 100 100 100 100 100 100 100 100 100 99 100 100 100
100 100 100 92 70 56 46 40 37 40 39 35 32 32 36 38 39 32 36 42 45 48 47 45 44 46 49 55 72 84 97 100 100 100 100 100 100 100 100 100 100 100 100 100
100 100 100 98 84 70 62 60 59 57 57 54 53 51 56 50 47 55 51 46 42 44 44 45 49 55 60 76 88 97 100 100 100 100 100 100 100 100 99 100 100 100 100 100
100 100 100 100 100 90 86 82 78 74 77 76 81 89 96 100 100 100 100 100 95 94 91 91 96 98 98 97 100 100 100 100 100 100 100 100 100 100 99 97 97 100 100 100
100 100 100 100 99 98 92 82 76 71 64 76 76 86 94 99 100 99 100 99 94 93 97 98 95 98 100 100 100 100 100 100 100 100 100 100 100 100 100 98 99 100 100 100
100 100 100 100 97 90 96 96 98 99 100 100 100 100 97 100 100 100 100 100 100 100 100 100 100 100 100 100 100 100 100 100 100 100 100 100 100 100 100 100 100 100 100 100
99 99 100 100 96 100 100 100 100 100 100 100 97 92 83 64 54 46 44 40 38 34 49 61 72 96 100 100 100 100 100 100 100 100 100 100 100 100 100 100 100 100 100 100
93 90 100 96 97 96 94 100 100 100 93 79 67 49 41 37 34 45 44 34 28 22 18 20 25 32 52 88 99 99 99 99 99 97 94 94 94 92 92 97 100 100 100 100
100 100 100 100 100 100 100 100 96 87 77 68 54 48 46 40 27 21 20 24 24 19 17 17 18 19 22 24 26 25 24 21 19 17 17 19 22 24 39 49 62 66 58 49
Wind_Speed
19 17 17 16 16 15 14 16 22 17 26 23 22 23 20 22 24 28 30 29 28 28 27 26 26 26 26 27 28 29 28 25 24 25 26 28 28 28 30 31 32 31 34 33
19 21 21 20 21 19 17 19 18 20 24 22 19 17 15 21 22 22 23 23 24 25 24 23 22 22 22 24 23 21 21 22 23 26 29 29 29 30 29 30 29 31 32 32
14 17 18 17 16 20 21 21 22 25 18 26 22 18 18 23 24 21 21 21 21 22 20 18 19 20 18 16 16 18 20 22 25 28 31 29 26 26 28 29 28 30 28 27
15 18 17 15 16 15 16 22 24 23 24 21 16 16 19 22 20 19 19 19 18 19 20 18 19 18 18 17 19 21 20 18 20 23 23 23 24 26 26 25 27 26 26 27
15 15 14 11 13 14 13 14 15 18 20 17 15 17 19 18 20 18 19 18 18 19 19 16 17 18 18 17 16 14 14 15 17 17 19 19 19 20 22 23 23 24 25 26
12 13 13 12 13 12 13 13 13 15 16 16 17 18 20 18 19 19 19 19 20 19 17 15 16 15 13 12 12 14 13 15 17 18 19 20 21 21 20 21 22 24 25 24
14 13 11 12 13 14 10 10 11 13 15 15 16 18 18 19 20 21 22 22 21 20 17 16 15 14 12 13 14 14 14 16 18 20 20 20 21 20 20 22 23 24 23 21
16 12 12 13 13 12 11 12 12 14 14 14 16 16 17 18 20 22 21 21 21 19 17 17 16 14 12 14 14 14 15 16 19 19 19 20 21 21 22 22 23 22 20 18
15 16 17 16 15 15 14 14 13 13 13 13 14 16 17 20 23 25 23 21 21 20 17 16 16 15 13 14 16 15 15 17 19 20 19 20 21 22 22 23 23 22 20 19
23 17 17 18 19 20 19 18 17 15 14 14 15 16 21 22 24 27 25 24 23 22 20 17 17 16 14 15 17 17 17 17 19 19 20 21 22 23 23 23 24 23 22 21
24 25 27 23 18 17 19 20 21 22 20 19 19 18 19 23 23 19 28 25 23 22 21 20 20 19 17 16 17 18 18 18 19 18 19 20 22 24 24 25 25 24 23 23
27 31 25 24 24 24 21 20 20 21 22 23 23 22 20 22 23 23 21 29 28 25 23 23 21 20 19 18 19 20 20 21 21 21 21 20 22 24 26 27 27 27 26 24
36 35 30 28 22 23 26 24 23 23 22 24 25 25 24 23 24 24 25 27 26 30 28 26 25 24 21 20 19 21 22 23 24 24 26 27 28 28 29 30 30 29 28 28
41 39 34 33 27 24 22 25 25 25 25 25 26 27 28 27 26 26 27 27 27 28 31 30 28 28 25 24 23 24 24 25 26 27 28 28 29 31 33 33 31 30 30 31
41 41 39 35 31 27 23 22 24 26 26 27 27 28 29 29 29 28 28 29 30 29 29 33 31 29 28 27 26 27 28 28 28 28 29 29 29 29 29 27 28 29 31 32
35 38 39 34 33 28 24 23 22 22 25 26 28 29 29 30 31 30 30 29 31 32 31 30 31 32 31 31 31 32 32 31 31 29 27 27 28 28 28 27 27 28 29 31
31 32 34 30 32 29 27 24 22 22 23 23 24 27 29 30 31 31 30 31 32 32 32 33 34 35 36 36 35 35 34 32 31 29 28 29 30 29 28 28 30 32 31 29
24 26 27 30 32 31 29 28 28 27 29 29 30 31 31 31 32 33 33 32 32 33 33 34 34 34 35 37 37 36 34 32 31 30 31 30 30 30 30 30 31 32 31 30
19 22 25 27 28 27 28 28 28 27 28 27 27 28 28 32 34 34 35 35 35 35 36 36 35 35 36 37 37 36 34 33 31 30 29 29 29 31 32 33 33 31 31 30
14 17 18 19 21 23 24 25 25 26 27 27 28 28 27 27 29 30 31 35 36 36 36 36 36 36 36 36 35 35 32 32 30 29 27 28 30 32 32 33 31 30 30 31
15 15 15 16 17 19 21 22 22 21 21 23 24 25 25 26 26 26 26 28 30 32 33 33 33 34 34 34 33 32 31 32 31 31 31 31 33 33 33 31 30 30 31 32
12 12 13 15 15 17 17 16 16 18 18 17 18 18 19 20 18 18 19 21 24 26 27 29 29 29 30 30 29 29 30 29 28 29 31 34 35 35 33 32 32 32 33 34
14 14 14 14 13 12 14 14 14 14 14 13 13 16 18 17 17 16 17 19 21 23 26 27 28 28 27 27 28 28 28 30 32 34 35 35 36 35 34 33 33 33 36 38
12 12 15 12 13 13 15 14 13 14 18 20 18 16 14 16 12 12 12 13 15 16 16 18 21 24 27 29 30 32 33 31 33 36 37 35 36 38 35 34 35 36 38 39
20 18 26 23 18 16 17 15 17 14 11 10 11 10 13 17 18 18 19 19 19 20 19 18 19 18 19 21 23 24 27 29 32 34 36 36 37 38 37 38 38 38 39 40
23 22 22 25 25 23 20 20 20 18 16 17 18 19 21 23 24 25 25 25 25 23 23 24 23 20 19 17 13 11 12 14 17 20 22 24 27 29 31 33 35 37 36 37
24 24 24 24 25 25 25 24 23 23 23 23 24 25 28 31 30 27 27 27 28 24 21 20 20 19 18 15 13 12 12 14 17 19 22 26 29 31 33 36 37 38 39 40
Wind_Direction
234 235 237 246 254 253 251 244 238 235 241 254 244 234 244 245 242 239 240 242 246 247 247 249 253 256 258 261 265 269 271 276 274 282 284 282 282 288 289 286 290 291 295 299
238 241 243 239 244 253 251 244 245 247 253 255 251 245 242 240 242 239 238 238 239 243 245 245 250 256 261 269 269 269 272 275 280 283 281 282 282 289 290 287 288 292 298 301
236 240 244 246 244 239 240 242 243 243 245 243 245 245 236 233 235 235 235 236 238 240 242 247 247 254 265 273 275 278 280 284 283 284 283 282 284 289 286 288 292 297 297 299
241 247 254 249 249 243 235 236 244 247 249 255 243 223 230 234 235 235 237 232 235 241 242 235 243 254 261 267 276 277 281 290 293 286 288 289 287 285 286 285 290 292 298 303
245 242 247 242 236 234 236 236 230 235 245 249 237 235 236 236 238 237 233 226 231 235 240 242 248 257 266 271 276 287 297 302 302 301 300 295 288 282 282 286 291 298 303 306
243 239 243 239 242 235 227 240 241 242 243 243 239 241 244 243 240 237 236 235 235 232 240 247 253 257 255 274 282 288 299 306 308 309 302 294 289 285 286 292 296 300 304 303
246 242 242 235 234 243 242 239 239 241 246 246 243 243 240 235 231 227 226 232 232 231 237 250 260 249 258 271 279 294 298 306 311 308 302 292 291 289 294 297 300 304 302 302
248 249 239 241 240 242 238 239 238 244 243 242 242 245 240 233 224 223 228 231 230 228 234 250 255 249 254 267 277 289 299 305 303 303 300 294 293 294 297 298 303 305 303 304
255 251 252 248 247 242 242 240 243 245 250 248 240 229 231 234 231 228 227 235 233 229 231 246 253 253 254 267 276 283 292 300 299 299 297 294 293 297 301 304 308 306 304 304
246 249 252 253 249 247 248 247 245 249 254 254 249 238 233 237 243 235 229 230 233 235 233 240 252 254 256 263 273 279 285 295 297 297 294 292 295 296 301 304 309 309 305 305
251 250 246 249 250 255 251 250 252 254 253 253 255 249 245 246 256 262 234 235 239 237 238 241 247 251 256 261 270 277 279 287 291 295 296 295 295 293 296 299 304 309 306 305
244 246 251 251 246 247 249 250 249 248 249 248 248 253 251 251 249 253 256 240 237 241 241 243 250 254 257 260 265 272 276 278 284 283 288 296 299 297 293 293 298 303 306 304
240 241 241 245 248 246 246 247 247 249 249 248 248 250 252 252 254 254 253 254 252 245 244 245 246 250 255 260 266 271 275 279 279 283 284 288 295 293 293 290 290 295 300 301
237 239 236 239 239 246 247 247 249 250 250 250 249 249 252 254 255 254 254 255 255 253 250 246 249 252 254 258 263 269 274 276 279 279 284 287 293 295 294 287 284 290 294 299
230 233 232 233 235 239 247 248 249 252 251 249 250 252 252 253 255 255 255 257 255 255 255 249 246 253 256 258 262 268 273 275 277 279 280 286 293 296 301 294 286 290 296 298
224 228 228 228 230 230 237 243 247 252 255 254 253 253 255 255 255 255 252 254 255 254 254 255 250 251 255 260 264 268 272 274 275 278 278 283 292 295 295 293 290 290 291 292
204 223 227 223 222 226 232 238 243 250 256 262 262 260 258 256 256 256 255 253 254 256 256 256 255 255 258 261 265 268 270 275 276 274 275 283 290 293 295 296 292 290 290 291
216 223 222 224 218 224 232 240 249 256 262 265 267 266 264 261 258 255 254 254 254 255 255 256 257 258 261 263 265 268 272 274 274 274 278 281 283 287 291 295 298 295 292 290
232 230 224 220 222 230 238 246 255 261 267 270 270 270 268 264 261 260 257 256 254 255 256 258 259 260 261 264 267 269 270 272 272 275 275 276 280 285 290 291 294 297 291 290
200 231 222 222 226 235 243 252 258 263 267 270 269 269 270 269 264 261 263 262 259 258 259 261 263 264 265 267 268 268 270 270 269 269 269 278 281 285 289 292 294 292 289 292
218 226 225 226 233 241 249 257 262 268 273 274 276 277 278 271 264 260 260 263 262 262 263 264 265 263 262 263 265 267 265 267 267 269 267 274 278 283 288 293 293 289 289 292
226 227 232 234 237 241 245 252 259 263 262 260 264 271 269 265 262 261 262 266 265 264 265 264 262 262 262 261 262 263 263 265 269 266 267 273 277 279 284 289 290 288 288 288
240 236 232 239 247 252 261 264 263 262 264 286 291 290 288 279 275 273 271 274 275 272 269 270 268 264 262 262 261 260 262 267 263 262 266 272 274 276 280 283 284 284 284 288
230 220 228 243 261 264 265 264 275 284 280 275 269 280 287 281 268 269 272 275 276 275 277 279 273 270 266 262 260 261 258 260 262 264 268 271 273 276 280 280 283 286 292 294
215 217 239 233 247 253 258 259 255 251 258 267 268 276 289 293 292 290 287 286 284 285 285 286 289 286 274 266 258 264 263 258 264 267 271 272 273 276 281 284 287 291 294 294
219 225 228 238 249 247 252 255 258 261 267 273 278 287 292 292 289 286 285 285 286 289 281 273 271 275 286 290 273 277 286 291 292 291 295 298 297 297 297 296 295 295 296 298
234 235 239 241 242 246 252 257 261 264 268 274 277 287 297 301 294 282 272 272 278 282 280 276 271 268 267 269 275 283 286 290 293 297 301 301 299 299 296 294 291 294 298 299